Lawrence, KS

4:46 AM CST on December 09, 2016 (GMT -0600)
Lawrence Municipal

Weather History for KLWC - May, 2014

Change the Weather History Date:

Saturday, May 10, 2014

  Actual Average Record
Temperature  
Mean Temperature 67 °F 63 °F  
Max Temperature 86 °F 75 °F 90 °F (2011)
Min Temperature 48 °F 51 °F 33 °F (1997)
Degree Days  
Heating Degree Days 0 4  
Month to date heating degree days 39 53  
Since 1 July heating degree days 5560 5032  
Cooling Degree Days 2 2  
Month to date cooling degree days 41 15  
Year to date cooling degree days 51 38  
Growing Degree Days 17 (Base 50)    
Moisture  
Dew Point 56 °F    
Average Humidity 66    
Maximum Humidity 89    
Minimum Humidity 43    
Precipitation  
Precipitation T in 0.16 in 1.11 in (2004)
Month to date precipitation 0.16 1.64  
Year to date precipitation 5.75 10.34  
Sea Level Pressure  
Sea Level Pressure 29.77 in    
Wind  
Wind Speed 12 mph (SSE)    
Max Wind Speed 31 mph    
Max Gust Speed 39 mph    
Visibility 10 miles    
Events Rain , Thunderstorm    
T = Trace of Precipitation, MM = Missing Value Source: NWS Daily Summary

Daily Weather History Graph

Daily Weather History Graph

Search for Another Location

Airport or City:

Trip Planner

Search our weather history database for the weather conditions in past years. The results will help you decide how hot, cold, wet, or windy it might be!

Date:

Astronomy

May. 10, 2014 Rise Set
Actual Time 6:12 AM CDT 8:22 PM CDT
Civil Twilight 5:43 AM CDT 8:51 PM CDT
Nautical Twilight 5:06 AM CDT 9:28 PM CDT
Astronomical Twilight 4:27 AM CDT 10:08 PM CDT
Moon 4:20 PM CDT (5/10) 3:44 AM CDT (5/10)
Length of Visible Light 15h 08m
Length of Day
14h 09m
Waxing Gibbous, 82% of the Moon is Illuminated
May 10
Waxing Gibbous
May 14
Full
May 21
Last Quarter
May 28
New
Jun 5
First Quarter

Hourly Weather History & Observations

Time (CDT) Temp. Heat Index Dew Point Humidity Pressure Visibility Wind Dir Wind Speed Gust Speed Precip Events Conditions
12:52 AM 52.0 °F - 46.9 °F 83% 29.87 in 10.0 mi East 4.6 mph - N/A   Clear
1:52 AM 53.1 °F - 48.0 °F 83% 29.85 in 10.0 mi East 5.8 mph - N/A   Clear
2:52 AM 51.1 °F - 46.9 °F 86% 29.84 in 10.0 mi SE 4.6 mph - N/A   Clear
3:52 AM 51.1 °F - 48.0 °F 89% 29.83 in 10.0 mi East 4.6 mph - N/A   Clear
4:52 AM 50.0 °F - 46.9 °F 89% 29.84 in 10.0 mi SE 5.8 mph - N/A   Clear
6:52 AM 54.0 °F - 48.0 °F 80% 29.86 in 10.0 mi East 6.9 mph - N/A   Clear
7:52 AM 59.0 °F - 51.1 °F 75% 29.87 in 10.0 mi ESE 9.2 mph - N/A   Clear
8:52 AM 66.0 °F - 53.1 °F 63% 29.86 in 10.0 mi SE 9.2 mph - N/A   Clear
9:52 AM 72.0 °F - 55.9 °F 57% 29.84 in 10.0 mi SSE 15.0 mph - N/A   Clear
10:52 AM 77.0 °F - 59.0 °F 54% 29.82 in 10.0 mi SSE 15.0 mph - N/A   Clear
11:52 AM 80.1 °F 81.1 °F 61.0 °F 52% 29.79 in 10.0 mi South 15.0 mph 26.5 mph N/A   Clear
12:52 PM 82.0 °F 82.0 °F 57.9 °F 44% 29.74 in 10.0 mi SSE 24.2 mph 29.9 mph N/A   Clear
1:52 PM 84.9 °F 84.8 °F 60.1 °F 43% 29.71 in 10.0 mi SSE 23.0 mph 29.9 mph N/A   Clear
2:52 PM 84.0 °F 84.5 °F 62.1 °F 47% 29.71 in 10.0 mi South 24.2 mph 31.1 mph N/A   Partly Cloudy
3:52 PM 84.9 °F 84.8 °F 60.1 °F 43% 29.69 in 10.0 mi SW 20.7 mph 31.1 mph N/A   Partly Cloudy
4:52 PM 84.9 °F 85.0 °F 61.0 °F 44% 29.68 in 10.0 mi WSW 18.4 mph 26.5 mph N/A   Partly Cloudy
5:52 PM 84.9 °F 85.0 °F 61.0 °F 44% 29.68 in 10.0 mi SSW 10.4 mph - N/A   Mostly Cloudy
6:16 PM 82.9 °F 83.2 °F 60.1 °F 46% 29.69 in 10.0 mi South 13.8 mph 25.3 mph N/A Thunderstorm Thunderstorm
6:47 PM 78.8 °F - 62.6 °F 57% 29.69 in 10.0 mi South 12.7 mph - 0.00 in Rain , Thunderstorm Light Rain
6:52 PM 79.0 °F - 63.0 °F 58% 29.68 in 10.0 mi South 21.9 mph 32.2 mph 0.00 in Rain , Thunderstorm Light Rain
7:27 PM 77.0 °F - 51.1 °F 40% 29.70 in 10.0 mi SSW 10.4 mph - 0.00 in   Scattered Clouds
7:52 PM 75.0 °F - 52.0 °F 44% 29.68 in 10.0 mi South 4.6 mph - 0.00 in   Clear
8:52 PM 66.0 °F - 57.0 °F 73% 29.74 in 10.0 mi East 5.8 mph - N/A   Partly Cloudy
10:52 PM 69.1 °F - 60.1 °F 73% 29.76 in 10.0 mi East 4.6 mph - N/A   Clear
11:52 PM 69.1 °F - 60.1 °F 73% 29.74 in 10.0 mi East 9.2 mph - N/A   Clear